Time,TemperatureF,DewpointF,PressureIn,WindDirection,WindDirectionDegrees,WindSpeedMPH,WindSpeedGustMPH,Humidity,HourlyPrecipIn,Conditions,Clouds,dailyrainin,SoftwareType,DateUTC
2013-08-11 00:03:00,79.0,52.0,29.59,North,0,1.1,1.1,39,0.00,,,0.00,meteobridge,2013-08-10 21:03:00,
2013-08-11 00:08:00,79.0,52.0,29.59,NNE,22,1.6,1.6,39,0.00,,,0.00,meteobridge,2013-08-10 21:08:00,
2013-08-11 00:13:00,79.0,52.0,29.59,ENE,68,0.0,1.6,39,0.00,,,0.00,meteobridge,2013-08-10 21:13:00,
2013-08-11 00:18:00,78.8,51.8,29.59,NNE,22,1.3,1.6,39,0.00,,,0.00,meteobridge,2013-08-10 21:18:00,
2013-08-11 00:23:00,78.8,51.8,29.59,NNE,22,0.0,2.0,39,0.00,,,0.00,meteobridge,2013-08-10 21:23:00,
2013-08-11 00:28:00,78.8,51.8,29.59,NNE,22,2.0,2.5,39,0.00,,,0.00,meteobridge,2013-08-10 21:28:00,
2013-08-11 00:33:00,78.8,51.8,29.59,NNE,22,2.0,2.2,39,0.00,,,0.00,meteobridge,2013-08-10 21:33:00,
2013-08-11 00:38:00,78.8,51.1,29.59,NNE,22,0.9,2.0,38,0.00,,,0.00,meteobridge,2013-08-10 21:38:00,
2013-08-11 00:43:00,78.8,50.4,29.59,NNE,22,1.3,2.2,37,0.00,,,0.00,meteobridge,2013-08-10 21:43:00,
2013-08-11 00:48:00,79.0,49.8,29.59,NNE,22,0.0,1.6,36,0.00,,,0.00,meteobridge,2013-08-10 21:48:00,
2013-08-11 00:53:00,79.0,49.8,29.59,NNE,22,0.9,1.1,36,0.00,,,0.00,meteobridge,2013-08-10 21:53:00,
2013-08-11 00:58:00,79.0,49.1,29.59,NNE,22,0.0,2.0,35,0.00,,,0.00,meteobridge,2013-08-10 21:58:00,
2013-08-11 01:04:00,79.0,49.1,29.59,NE,45,0.0,1.3,35,0.00,,,0.00,meteobridge,2013-08-10 22:04:00,
2013-08-11 01:09:00,79.2,49.1,29.59,NNE,22,1.1,1.3,35,0.00,,,0.00,meteobridge,2013-08-10 22:09:00,
2013-08-11 01:14:00,79.2,48.4,29.59,NNE,22,0.0,1.3,34,0.00,,,0.00,meteobridge,2013-08-10 22:14:00,
2013-08-11 01:19:00,79.2,48.4,29.59,North,0,1.6,1.6,34,0.00,,,0.00,meteobridge,2013-08-10 22:19:00,
2013-08-11 01:24:00,79.2,47.7,29.59,North,0,0.0,1.6,33,0.00,,,0.00,meteobridge,2013-08-10 22:24:00,
2013-08-11 01:31:00,79.0,47.5,29.59,NNE,22,1.6,2.5,33,0.00,,,0.00,meteobridge,2013-08-10 22:31:00,
2013-08-11 01:36:00,79.2,46.8,29.59,NE,45,1.1,1.1,32,0.00,,,0.00,meteobridge,2013-08-10 22:36:00,
2013-08-11 01:41:00,79.2,46.8,29.59,SE,135,2.0,2.0,32,0.00,,,0.00,meteobridge,2013-08-10 22:41:00,
2013-08-11 01:46:00,79.3,45.3,29.59,East,90,0.0,1.6,30,0.00,,,0.00,meteobridge,2013-08-10 22:46:00,
2013-08-11 01:51:00,79.3,45.3,29.59,ESE,112,2.5,2.5,30,0.00,,,0.00,meteobridge,2013-08-10 22:51:00,
2013-08-11 01:56:00,79.3,45.3,29.59,North,0,1.1,1.3,30,0.00,,,0.00,meteobridge,2013-08-10 22:56:00,
2013-08-11 02:02:00,79.2,45.1,29.59,North,0,0.0,0.0,30,0.00,,,0.00,meteobridge,2013-08-10 23:02:00,
2013-08-11 02:07:00,79.2,44.2,29.59,NE,45,1.1,1.6,29,0.00,,,0.00,meteobridge,2013-08-10 23:07:00,
2013-08-11 02:12:00,79.2,42.3,29.59,SE,135,1.6,2.0,27,0.00,,,0.00,meteobridge,2013-08-10 23:12:00,
2013-08-11 02:17:00,79.3,42.4,29.59,ESE,112,0.0,0.0,27,0.00,,,0.00,meteobridge,2013-08-10 23:17:00,
2013-08-11 02:22:00,79.3,42.4,29.59,ENE,68,0.9,1.1,27,0.00,,,0.00,meteobridge,2013-08-10 23:22:00,
2013-08-11 02:28:00,79.3,41.5,29.59,ESE,112,0.0,0.0,26,0.00,,,0.00,meteobridge,2013-08-10 23:28:00,
2013-08-11 02:33:00,79.3,41.5,29.59,East,90,0.9,2.0,26,0.00,,,0.00,meteobridge,2013-08-10 23:33:00,
2013-08-11 02:38:00,79.3,40.5,29.59,ESE,112,0.0,0.0,25,0.00,,,0.00,meteobridge,2013-08-10 23:38:00,
2013-08-11 02:43:00,79.3,40.5,29.59,ESE,112,0.0,1.1,25,0.00,,,0.00,meteobridge,2013-08-10 23:43:00,
2013-08-11 02:48:00,79.3,40.5,29.59,East,90,1.3,1.3,25,0.00,,,0.00,meteobridge,2013-08-10 23:48:00,
2013-08-11 02:53:00,79.3,39.4,29.59,ENE,68,0.9,2.2,24,0.00,,,0.00,meteobridge,2013-08-10 23:53:00,
2013-08-11 02:58:00,79.5,39.6,29.59,East,90,0.0,0.0,24,0.00,,,0.00,meteobridge,2013-08-10 23:58:00,
2013-08-11 03:03:00,79.5,39.6,29.59,North,0,1.6,1.6,24,0.00,,,0.00,meteobridge,2013-08-11 00:03:00,
2013-08-11 03:08:00,79.3,39.4,29.59,NNE,22,1.6,2.5,24,0.00,,,0.00,meteobridge,2013-08-11 00:08:00,
2013-08-11 03:13:00,79.3,39.4,29.59,NNE,22,0.9,1.1,24,0.00,,,0.00,meteobridge,2013-08-11 00:13:00,
2013-08-11 03:18:00,79.3,39.4,29.56,NNE,22,1.6,2.0,24,0.00,,,0.00,meteobridge,2013-08-11 00:18:00,
2013-08-11 03:24:00,79.3,39.4,29.56,NNE,22,0.9,2.0,24,0.00,,,0.00,meteobridge,2013-08-11 00:24:00,
2013-08-11 03:30:00,79.3,39.4,29.56,ENE,68,1.3,1.3,24,0.00,,,0.00,meteobridge,2013-08-11 00:30:00,
2013-08-11 03:35:00,79.2,39.4,29.59,East,90,0.0,1.6,24,0.00,,,0.00,meteobridge,2013-08-11 00:35:00,
2013-08-11 03:40:00,79.0,39.2,29.59,East,90,0.0,0.0,24,0.00,,,0.00,meteobridge,2013-08-11 00:40:00,
2013-08-11 03:45:00,79.0,39.2,29.59,North,0,2.5,2.5,24,0.00,,,0.00,meteobridge,2013-08-11 00:45:00,
2013-08-11 03:50:00,79.0,39.2,29.56,North,0,1.1,1.6,24,0.00,,,0.00,meteobridge,2013-08-11 00:50:00,
2013-08-11 03:55:00,78.8,39.0,29.56,North,0,0.0,1.3,24,0.00,,,0.00,meteobridge,2013-08-11 00:55:00,
2013-08-11 04:00:00,78.8,39.0,29.56,North,0,0.0,1.6,24,0.00,,,0.00,meteobridge,2013-08-11 01:00:00,
2013-08-11 04:05:00,78.6,38.8,29.56,North,0,1.3,2.2,24,0.00,,,0.00,meteobridge,2013-08-11 01:05:00,
2013-08-11 04:10:00,78.4,38.7,29.56,North,0,0.9,0.9,24,0.00,,,0.00,meteobridge,2013-08-11 01:10:00,
2013-08-11 04:15:00,78.4,38.7,29.56,ENE,68,0.9,1.3,24,0.00,,,0.00,meteobridge,2013-08-11 01:15:00,
2013-08-11 04:20:00,78.4,39.7,29.56,NNE,22,0.0,0.0,25,0.00,,,0.00,meteobridge,2013-08-11 01:20:00,
2013-08-11 04:25:00,78.6,39.9,29.56,ENE,68,0.0,1.1,25,0.00,,,0.00,meteobridge,2013-08-11 01:25:00,
2013-08-11 04:30:00,78.6,39.9,29.56,NE,45,1.6,1.6,25,0.00,,,0.00,meteobridge,2013-08-11 01:30:00,
2013-08-11 04:35:00,78.6,39.9,29.56,NNE,22,0.0,1.1,25,0.00,,,0.00,meteobridge,2013-08-11 01:35:00,
2013-08-11 04:40:00,78.4,39.7,29.56,NNE,22,0.0,0.0,25,0.00,,,0.00,meteobridge,2013-08-11 01:40:00,
2013-08-11 04:45:00,78.4,39.7,29.56,NNE,22,0.0,0.0,25,0.00,,,0.00,meteobridge,2013-08-11 01:45:00,
2013-08-11 04:50:00,78.3,39.6,29.56,North,0,0.9,2.0,25,0.00,,,0.00,meteobridge,2013-08-11 01:50:00,
2013-08-11 04:55:00,78.1,40.5,29.56,North,0,2.7,2.7,26,0.00,,,0.00,meteobridge,2013-08-11 01:55:00,
2013-08-11 05:00:00,77.7,40.1,29.56,NNE,22,1.3,1.3,26,0.00,,,0.00,meteobridge,2013-08-11 02:00:00,
2013-08-11 05:05:00,77.5,39.9,29.56,NNE,22,0.0,1.6,26,0.00,,,0.00,meteobridge,2013-08-11 02:05:00,
2013-08-11 05:11:00,77.5,39.9,29.56,East,90,2.0,2.0,26,0.00,,,0.00,meteobridge,2013-08-11 02:11:00,
2013-08-11 05:16:00,77.9,41.2,29.56,NNE,22,1.1,2.9,27,0.00,,,0.00,meteobridge,2013-08-11 02:16:00,
2013-08-11 05:21:00,77.9,41.2,29.56,NNE,22,2.9,2.9,27,0.00,,,0.00,meteobridge,2013-08-11 02:21:00,
2013-08-11 05:26:00,78.1,41.4,29.56,NNE,22,2.9,5.4,27,0.00,,,0.00,meteobridge,2013-08-11 02:26:00,
2013-08-11 05:31:00,78.3,41.5,29.56,North,0,0.9,0.9,27,0.00,,,0.00,meteobridge,2013-08-11 02:31:00,
2013-08-11 05:36:00,78.3,41.5,29.56,NW,315,2.9,2.9,27,0.00,,,0.00,meteobridge,2013-08-11 02:36:00,
2013-08-11 05:41:00,78.4,41.7,29.56,North,0,2.2,2.7,27,0.00,,,0.00,meteobridge,2013-08-11 02:41:00,
2013-08-11 05:46:00,78.3,41.5,29.56,NNE,22,3.8,5.8,27,0.00,,,0.00,meteobridge,2013-08-11 02:46:00,
2013-08-11 05:51:00,78.4,40.8,29.56,NE,45,2.2,5.4,26,0.00,,,0.00,meteobridge,2013-08-11 02:51:00,
2013-08-11 05:56:00,78.6,40.8,29.56,ENE,68,6.3,6.3,26,0.00,,,0.00,meteobridge,2013-08-11 02:56:00,
2013-08-11 06:01:00,79.3,38.3,29.56,NNW,338,4.0,5.8,23,0.00,,,0.00,meteobridge,2013-08-11 03:01:00,
2013-08-11 06:07:00,79.3,37.2,29.59,East,90,6.3,6.3,22,0.00,,,0.00,meteobridge,2013-08-11 03:07:00,
2013-08-11 06:12:00,79.5,36.1,29.59,East,90,3.1,8.5,21,0.00,,,0.00,meteobridge,2013-08-11 03:12:00,
2013-08-11 06:17:00,79.5,36.1,29.59,North,0,3.1,5.6,21,0.00,,,0.00,meteobridge,2013-08-11 03:17:00,
2013-08-11 06:22:00,79.2,36.0,29.59,NNE,22,5.4,5.4,21,0.00,,,0.00,meteobridge,2013-08-11 03:22:00,
2013-08-11 06:28:00,79.0,35.8,29.59,East,90,5.8,8.5,21,0.00,,,0.00,meteobridge,2013-08-11 03:28:00,
2013-08-11 06:34:00,79.0,35.8,29.59,NNE,22,6.3,6.3,21,0.00,,,0.00,meteobridge,2013-08-11 03:34:00,
2013-08-11 06:40:00,79.0,35.8,29.59,NNE,22,5.4,13.0,21,0.00,,,0.00,meteobridge,2013-08-11 03:40:00,
2013-08-11 06:45:00,78.8,35.6,29.59,North,0,8.5,8.5,21,0.00,,,0.00,meteobridge,2013-08-11 03:45:00,
2013-08-11 06:50:00,78.8,35.6,29.59,NNE,22,6.7,6.7,21,0.00,,,0.00,meteobridge,2013-08-11 03:50:00,
2013-08-11 06:55:00,78.8,35.6,29.59,NNE,22,7.8,8.1,21,0.00,,,0.00,meteobridge,2013-08-11 03:55:00,
2013-08-11 07:00:00,79.0,35.8,29.59,North,0,6.3,8.5,21,0.00,,,0.00,meteobridge,2013-08-11 04:00:00,
2013-08-11 07:01:00,79.0,35.8,29.59,North,0,5.4,8.5,21,0.00,,,0.00,meteobridge,2013-08-11 04:01:00,
2013-08-11 07:02:00,79.0,35.8,29.59,ENE,68,7.6,10.1,21,0.00,,,0.00,meteobridge,2013-08-11 04:02:00,
2013-08-11 07:08:00,79.0,35.8,29.59,North,0,5.8,6.0,21,0.00,,,0.00,meteobridge,2013-08-11 04:08:00,
2013-08-11 07:13:00,79.7,36.3,29.59,North,0,2.9,6.5,21,0.00,,,0.00,meteobridge,2013-08-11 04:13:00,
2013-08-11 07:18:00,80.1,36.7,29.59,NNE,22,5.6,8.1,21,0.00,,,0.00,meteobridge,2013-08-11 04:18:00,
2013-08-11 07:23:00,80.4,35.8,29.59,NNE,22,10.3,10.3,20,0.00,,,0.00,meteobridge,2013-08-11 04:23:00,
2013-08-11 07:29:00,80.8,36.0,29.59,North,0,3.4,8.1,20,0.00,,,0.00,meteobridge,2013-08-11 04:29:00,
2013-08-11 07:34:00,81.1,36.3,29.59,NNE,22,7.2,7.6,20,0.00,,,0.00,meteobridge,2013-08-11 04:34:00,
2013-08-11 07:39:00,81.3,36.5,29.59,NNE,22,3.4,5.8,20,0.00,,,0.00,meteobridge,2013-08-11 04:39:00,
2013-08-11 07:44:00,81.7,36.7,29.59,NNE,22,2.0,6.5,20,0.00,,,0.00,meteobridge,2013-08-11 04:44:00,
2013-08-11 07:49:00,82.0,37.0,29.59,NNE,22,5.6,7.8,20,0.00,,,0.00,meteobridge,2013-08-11 04:49:00,
2013-08-11 07:54:00,82.6,36.1,29.59,North,0,2.7,7.4,19,0.00,,,0.00,meteobridge,2013-08-11 04:54:00,
2013-08-11 07:59:00,82.6,36.1,29.59,ENE,68,5.6,5.8,19,0.00,,,0.00,meteobridge,2013-08-11 04:59:00,
2013-08-11 08:04:00,82.9,36.5,29.59,ENE,68,2.5,6.5,19,0.00,,,0.00,meteobridge,2013-08-11 05:04:00,
2013-08-11 08:09:00,83.3,36.9,29.59,NNE,22,4.9,6.3,19,0.00,,,0.00,meteobridge,2013-08-11 05:09:00,
2013-08-11 08:14:00,83.1,36.7,29.59,NNE,22,5.4,6.3,19,0.00,,,0.00,meteobridge,2013-08-11 05:14:00,
2013-08-11 08:19:00,82.8,36.3,29.59,NNE,22,6.5,10.3,19,0.00,,,0.00,meteobridge,2013-08-11 05:19:00,
2013-08-11 08:24:00,83.3,36.9,29.59,NNE,22,4.7,8.1,19,0.00,,,0.00,meteobridge,2013-08-11 05:24:00,
2013-08-11 08:29:00,83.1,36.7,29.59,NNE,22,4.9,5.8,19,0.00,,,0.00,meteobridge,2013-08-11 05:29:00,
2013-08-11 08:35:00,83.3,36.9,29.59,North,0,3.8,7.4,19,0.00,,,0.00,meteobridge,2013-08-11 05:35:00,
2013-08-11 08:40:00,82.6,36.1,29.59,ENE,68,4.9,8.1,19,0.00,,,0.00,meteobridge,2013-08-11 05:40:00,
2013-08-11 08:45:00,82.2,37.2,29.59,North,0,7.8,8.5,20,0.00,,,0.00,meteobridge,2013-08-11 05:45:00,
2013-08-11 08:50:00,83.7,37.0,29.59,East,90,8.7,8.7,19,0.00,,,0.00,meteobridge,2013-08-11 05:50:00,
2013-08-11 08:55:00,83.8,37.2,29.59,NNE,22,6.3,6.3,19,0.00,,,0.00,meteobridge,2013-08-11 05:55:00,
2013-08-11 09:00:00,82.4,36.0,29.59,NNE,22,5.6,8.5,19,0.00,,,0.00,meteobridge,2013-08-11 06:00:00,
2013-08-11 09:05:00,82.4,36.0,29.59,NE,45,4.3,6.5,19,0.00,,,0.00,meteobridge,2013-08-11 06:05:00,
2013-08-11 09:10:00,84.7,36.5,29.59,North,0,5.6,7.4,18,0.00,,,0.00,meteobridge,2013-08-11 06:10:00,
2013-08-11 09:15:00,86.0,37.6,29.59,ENE,68,3.6,4.9,18,0.00,,,0.00,meteobridge,2013-08-11 06:15:00,
2013-08-11 09:20:00,86.2,34.7,29.59,NNE,22,8.5,8.5,16,0.00,,,0.00,meteobridge,2013-08-11 06:20:00,
2013-08-11 09:25:00,86.5,35.1,29.59,NNE,22,8.1,8.1,16,0.00,,,0.00,meteobridge,2013-08-11 06:25:00,
2013-08-11 09:31:00,86.7,35.2,29.59,NNE,22,8.1,12.1,16,0.00,,,0.00,meteobridge,2013-08-11 06:31:00,
2013-08-11 09:36:00,85.8,34.5,29.59,NNW,338,8.1,12.1,16,0.00,,,0.00,meteobridge,2013-08-11 06:36:00,
2013-08-11 09:41:00,85.6,34.3,29.59,North,0,10.1,11.0,16,0.00,,,0.00,meteobridge,2013-08-11 06:41:00,
2013-08-11 09:46:00,85.8,34.5,29.62,North,0,8.1,8.5,16,0.00,,,0.00,meteobridge,2013-08-11 06:46:00,
2013-08-11 09:51:00,84.2,33.3,29.62,NNW,338,8.1,8.1,16,0.00,,,0.00,meteobridge,2013-08-11 06:51:00,
2013-08-11 09:56:00,85.1,34.0,29.62,NNW,338,7.8,14.3,16,0.00,,,0.00,meteobridge,2013-08-11 06:56:00,
2013-08-11 10:01:00,86.0,34.7,29.62,NNW,338,14.8,14.8,16,0.00,,,0.00,meteobridge,2013-08-11 07:01:00,
2013-08-11 10:07:00,86.7,35.2,29.62,NNE,22,8.5,9.8,16,0.00,,,0.00,meteobridge,2013-08-11 07:07:00,
2013-08-11 10:12:00,87.3,35.6,29.62,NNE,22,5.6,8.7,16,0.00,,,0.00,meteobridge,2013-08-11 07:12:00,
2013-08-11 10:17:00,87.6,36.0,29.62,NW,315,6.5,12.1,16,0.00,,,0.00,meteobridge,2013-08-11 07:17:00,
2013-08-11 10:22:00,87.1,35.4,29.62,NNW,338,11.4,11.9,16,0.00,,,0.00,meteobridge,2013-08-11 07:22:00,
2013-08-11 10:27:00,87.8,34.5,29.62,North,0,5.6,8.9,15,0.00,,,0.00,meteobridge,2013-08-11 07:27:00,
2013-08-11 10:32:00,87.6,36.0,29.62,NNE,22,4.3,10.5,16,0.00,,,0.00,meteobridge,2013-08-11 07:32:00,
2013-08-11 10:37:00,87.8,34.5,29.62,ENE,68,10.3,10.3,15,0.00,,,0.00,meteobridge,2013-08-11 07:37:00,
2013-08-11 10:42:00,87.6,36.0,29.62,NNE,22,8.7,8.7,16,0.00,,,0.00,meteobridge,2013-08-11 07:42:00,
2013-08-11 10:47:00,88.0,34.5,29.62,North,0,6.5,9.8,15,0.00,,,0.00,meteobridge,2013-08-11 07:47:00,
2013-08-11 10:52:00,88.3,34.9,29.62,NE,45,10.1,10.1,15,0.00,,,0.00,meteobridge,2013-08-11 07:52:00,
2013-08-11 10:57:00,88.5,35.1,29.62,NNE,22,6.5,12.1,15,0.00,,,0.00,meteobridge,2013-08-11 07:57:00,
2013-08-11 11:02:00,88.7,35.2,29.62,North,0,4.9,8.5,15,0.00,,,0.00,meteobridge,2013-08-11 08:02:00,
2013-08-11 11:07:00,88.9,35.2,29.62,NNE,22,2.7,13.0,15,0.00,,,0.00,meteobridge,2013-08-11 08:07:00,
2013-08-11 11:12:00,89.6,35.8,29.62,East,90,2.9,5.8,15,0.00,,,0.00,meteobridge,2013-08-11 08:12:00,
2013-08-11 11:18:00,89.6,35.8,29.65,NE,45,4.7,8.7,15,0.00,,,0.00,meteobridge,2013-08-11 08:18:00,
2013-08-11 11:23:00,89.4,35.8,29.65,East,90,4.9,10.5,15,0.00,,,0.00,meteobridge,2013-08-11 08:23:00,
2013-08-11 11:28:00,89.6,35.8,29.65,NNE,22,10.7,10.7,15,0.00,,,0.00,meteobridge,2013-08-11 08:28:00,
2013-08-11 11:33:00,89.4,35.8,29.65,NNE,22,9.6,9.6,15,0.00,,,0.00,meteobridge,2013-08-11 08:33:00,
2013-08-11 11:38:00,89.8,36.0,29.65,NNE,22,6.0,8.5,15,0.00,,,0.00,meteobridge,2013-08-11 08:38:00,
2013-08-11 11:43:00,89.6,35.8,29.65,North,0,4.9,12.3,15,0.00,,,0.00,meteobridge,2013-08-11 08:43:00,
2013-08-11 11:48:00,89.8,36.0,29.65,NNE,22,10.1,10.1,15,0.00,,,0.00,meteobridge,2013-08-11 08:48:00,
2013-08-11 11:54:00,89.2,35.6,29.65,North,0,4.9,6.9,15,0.00,,,0.00,meteobridge,2013-08-11 08:54:00,
2013-08-11 11:59:00,89.2,35.6,29.65,North,0,3.4,10.7,15,0.00,,,0.00,meteobridge,2013-08-11 08:59:00,
2013-08-11 12:04:00,90.5,36.5,29.65,North,0,8.7,8.7,15,0.00,,,0.00,meteobridge,2013-08-11 09:04:00,
2013-08-11 12:09:00,91.0,31.5,29.65,NNW,338,6.3,7.4,12,0.00,,,0.00,meteobridge,2013-08-11 09:09:00,
2013-08-11 12:14:00,92.3,32.4,29.65,SW,225,4.9,4.9,12,0.00,,,0.00,meteobridge,2013-08-11 09:14:00,
2013-08-11 12:19:00,91.6,31.8,29.62,NNE,22,5.6,10.1,12,0.00,,,0.00,meteobridge,2013-08-11 09:19:00,
2013-08-11 12:24:00,91.4,31.6,29.62,NNW,338,10.7,10.7,12,0.00,,,0.00,meteobridge,2013-08-11 09:24:00,
2013-08-11 12:29:00,90.9,31.3,29.62,North,0,5.4,8.1,12,0.00,,,0.00,meteobridge,2013-08-11 09:29:00,
2013-08-11 12:34:00,90.7,31.1,29.62,NNE,22,8.7,15.2,12,0.00,,,0.00,meteobridge,2013-08-11 09:34:00,
2013-08-11 12:39:00,90.5,31.1,29.62,NNE,22,10.7,10.7,12,0.00,,,0.00,meteobridge,2013-08-11 09:39:00,
2013-08-11 12:45:00,90.7,31.1,29.62,NNE,22,6.0,12.5,12,0.00,,,0.00,meteobridge,2013-08-11 09:45:00,
2013-08-11 12:50:00,91.2,31.6,29.68,NNE,22,5.8,7.4,12,0.00,,,0.00,meteobridge,2013-08-11 09:50:00,
2013-08-11 12:55:00,91.4,31.6,29.68,North,0,6.3,10.7,12,0.00,,,0.00,meteobridge,2013-08-11 09:55:00,
2013-08-11 13:00:00,91.8,32.0,29.68,SE,135,3.1,8.5,12,0.00,,,0.00,meteobridge,2013-08-11 10:00:00,
2013-08-11 13:05:00,92.3,32.4,29.65,NNE,22,6.3,6.3,12,0.00,,,0.00,meteobridge,2013-08-11 10:05:00,
2013-08-11 13:10:00,92.1,32.2,29.65,NE,45,8.1,8.1,12,0.00,,,0.00,meteobridge,2013-08-11 10:10:00,
2013-08-11 13:15:00,91.8,32.0,29.65,ENE,68,6.5,7.6,12,0.00,,,0.00,meteobridge,2013-08-11 10:15:00,
2013-08-11 13:20:00,91.8,32.0,29.65,North,0,5.8,12.3,12,0.00,,,0.00,meteobridge,2013-08-11 10:20:00,
2013-08-11 13:25:00,91.8,32.0,29.65,NNE,22,7.4,8.5,12,0.00,,,0.00,meteobridge,2013-08-11 10:25:00,
2013-08-11 13:30:00,91.8,32.0,29.65,NNE,22,5.8,7.6,12,0.00,,,0.00,meteobridge,2013-08-11 10:30:00,
2013-08-11 13:35:00,91.6,31.8,29.65,NE,45,6.0,13.9,12,0.00,,,0.00,meteobridge,2013-08-11 10:35:00,
2013-08-11 13:40:00,91.9,32.2,29.65,NNW,338,4.3,11.0,12,0.00,,,0.00,meteobridge,2013-08-11 10:40:00,
2013-08-11 13:45:00,91.6,31.8,29.65,NNE,22,5.8,10.7,12,0.00,,,0.00,meteobridge,2013-08-11 10:45:00,
2013-08-11 13:50:00,92.5,32.5,29.65,NW,315,7.6,11.2,12,0.00,,,0.00,meteobridge,2013-08-11 10:50:00,
2013-08-11 13:56:00,92.3,32.4,29.65,NNW,338,10.1,10.1,12,0.00,,,0.00,meteobridge,2013-08-11 10:56:00,
2013-08-11 14:01:00,92.1,32.2,29.65,NW,315,8.7,10.5,12,0.00,,,0.00,meteobridge,2013-08-11 11:01:00,
2013-08-11 14:06:00,91.8,32.0,29.65,NE,45,7.2,8.1,12,0.00,,,0.00,meteobridge,2013-08-11 11:06:00,
2013-08-11 14:11:00,91.8,32.0,29.65,NNE,22,6.5,12.5,12,0.00,,,0.00,meteobridge,2013-08-11 11:11:00,
2013-08-11 14:16:00,92.3,32.4,29.65,North,0,4.3,6.5,12,0.00,,,0.00,meteobridge,2013-08-11 11:16:00,
2013-08-11 14:21:00,91.9,32.2,29.65,SE,135,7.6,8.7,12,0.00,,,0.00,meteobridge,2013-08-11 11:21:00,
2013-08-11 14:26:00,91.8,32.0,29.65,NNE,22,11.0,16.3,12,0.00,,,0.00,meteobridge,2013-08-11 11:26:00,
2013-08-11 14:31:00,91.9,32.2,29.65,North,0,5.4,7.6,12,0.00,,,0.00,meteobridge,2013-08-11 11:31:00,
2013-08-11 14:36:00,92.8,32.9,29.65,NW,315,5.6,9.6,12,0.00,,,0.00,meteobridge,2013-08-11 11:36:00,
2013-08-11 14:41:00,92.1,32.2,29.65,ENE,68,3.6,13.2,12,0.00,,,0.00,meteobridge,2013-08-11 11:41:00,
2013-08-11 14:46:00,92.3,32.4,29.65,ENE,68,6.3,10.1,12,0.00,,,0.00,meteobridge,2013-08-11 11:46:00,
2013-08-11 14:51:00,92.8,32.9,29.65,NE,45,3.1,12.5,12,0.00,,,0.00,meteobridge,2013-08-11 11:51:00,
2013-08-11 14:56:00,92.3,32.4,29.65,ENE,68,5.8,14.3,12,0.00,,,0.00,meteobridge,2013-08-11 11:56:00,
2013-08-11 15:01:00,92.5,32.5,29.65,NNE,22,7.2,8.5,12,0.00,,,0.00,meteobridge,2013-08-11 12:01:00,
2013-08-11 15:06:00,92.8,32.9,29.65,East,90,8.5,8.5,12,0.00,,,0.00,meteobridge,2013-08-11 12:06:00,
2013-08-11 15:12:00,91.9,32.2,29.65,NNE,22,8.1,9.4,12,0.00,,,0.00,meteobridge,2013-08-11 12:12:00,
2013-08-11 15:17:00,91.9,32.2,29.65,North,0,11.0,11.4,12,0.00,,,0.00,meteobridge,2013-08-11 12:17:00,
2013-08-11 15:22:00,92.3,32.4,29.65,NNW,338,4.9,5.4,12,0.00,,,0.00,meteobridge,2013-08-11 12:22:00,
2013-08-11 15:28:00,92.1,32.2,29.65,NNE,22,10.1,10.1,12,0.00,,,0.00,meteobridge,2013-08-11 12:28:00,
2013-08-11 15:33:00,92.3,32.4,29.62,NNE,22,7.8,9.8,12,0.00,,,0.00,meteobridge,2013-08-11 12:33:00,
2013-08-11 15:39:00,92.5,32.5,29.62,North,0,5.8,7.8,12,0.00,,,0.00,meteobridge,2013-08-11 12:39:00,
2013-08-11 15:44:00,92.1,32.2,29.62,ENE,68,4.9,8.7,12,0.00,,,0.00,meteobridge,2013-08-11 12:44:00,
2013-08-11 15:49:00,92.5,32.5,29.62,NNW,338,4.0,6.0,12,0.00,,,0.00,meteobridge,2013-08-11 12:49:00,
2013-08-11 15:55:00,92.7,32.7,29.62,NE,45,6.3,6.3,12,0.00,,,0.00,meteobridge,2013-08-11 12:55:00,
2013-08-11 16:00:00,91.9,32.2,29.62,North,0,3.6,8.7,12,0.00,,,0.00,meteobridge,2013-08-11 13:00:00,
2013-08-11 16:06:00,92.5,32.5,29.62,NW,315,6.3,12.1,12,0.00,,,0.00,meteobridge,2013-08-11 13:06:00,
2013-08-11 16:11:00,91.9,32.2,29.62,NNW,338,4.0,11.9,12,0.00,,,0.00,meteobridge,2013-08-11 13:11:00,
2013-08-11 16:16:00,91.2,31.6,29.62,NNE,22,6.0,11.9,12,0.00,,,0.00,meteobridge,2013-08-11 13:16:00,
2013-08-11 16:21:00,91.9,32.2,29.62,North,0,14.1,14.1,12,0.00,,,0.00,meteobridge,2013-08-11 13:21:00,
2013-08-11 16:26:00,90.9,31.3,29.62,NNE,22,8.1,14.3,12,0.00,,,0.00,meteobridge,2013-08-11 13:26:00,
2013-08-11 16:31:00,91.0,31.5,29.62,NNE,22,7.2,12.5,12,0.00,,,0.00,meteobridge,2013-08-11 13:31:00,
2013-08-11 16:37:00,91.0,31.5,29.62,North,0,12.5,12.5,12,0.00,,,0.00,meteobridge,2013-08-11 13:37:00,
2013-08-11 16:42:00,90.5,31.1,29.62,NW,315,8.5,10.5,12,0.00,,,0.00,meteobridge,2013-08-11 13:42:00,
2013-08-11 16:47:00,90.7,31.1,29.65,NNE,22,6.3,12.1,12,0.00,,,0.00,meteobridge,2013-08-11 13:47:00,
2013-08-11 16:52:00,90.7,31.1,29.65,NNE,22,7.4,9.6,12,0.00,,,0.00,meteobridge,2013-08-11 13:52:00,
2013-08-11 16:57:00,90.7,31.1,29.65,NNW,338,4.3,8.1,12,0.00,,,0.00,meteobridge,2013-08-11 13:57:00,
2013-08-11 17:02:00,91.0,31.5,29.62,ESE,112,6.5,7.6,12,0.00,,,0.00,meteobridge,2013-08-11 14:02:00,
2013-08-11 17:07:00,91.0,31.5,29.62,NNE,22,5.4,10.1,12,0.00,,,0.00,meteobridge,2013-08-11 14:07:00,
2013-08-11 17:12:00,90.7,31.1,29.62,North,0,2.0,9.4,12,0.00,,,0.00,meteobridge,2013-08-11 14:12:00,
2013-08-11 17:17:00,90.7,31.1,29.62,East,90,3.8,8.5,12,0.00,,,0.00,meteobridge,2013-08-11 14:17:00,
2013-08-11 17:23:00,90.9,31.3,29.62,NNE,22,4.0,5.4,12,0.00,,,0.00,meteobridge,2013-08-11 14:23:00,
2013-08-11 17:28:00,90.3,30.9,29.62,North,0,10.7,14.8,12,0.00,,,0.00,meteobridge,2013-08-11 14:28:00,
2013-08-11 17:33:00,90.3,30.9,29.65,NNW,338,3.1,5.8,12,0.00,,,0.00,meteobridge,2013-08-11 14:33:00,
2013-08-11 17:38:00,90.7,31.1,29.65,North,0,8.7,15.2,12,0.00,,,0.00,meteobridge,2013-08-11 14:38:00,
2013-08-11 17:43:00,89.6,30.4,29.65,North,0,8.9,10.3,12,0.00,,,0.00,meteobridge,2013-08-11 14:43:00,
2013-08-11 17:48:00,89.8,30.4,29.65,NNE,22,10.1,10.3,12,0.00,,,0.00,meteobridge,2013-08-11 14:48:00,
2013-08-11 17:53:00,-999.0,-99.9,29.65,NNW,338,10.3,10.3,-999,0.00,,,0.00,meteobridge,2013-08-11 14:53:00,
2013-08-11 17:58:00,89.2,32.0,29.65,North,0,3.6,7.2,13,0.00,,,0.00,meteobridge,2013-08-11 14:58:00,
2013-08-11 18:03:00,89.2,32.0,29.65,North,0,2.7,9.8,13,0.00,,,0.00,meteobridge,2013-08-11 15:03:00,
2013-08-11 18:08:00,88.9,31.8,29.65,NNE,22,2.9,5.6,13,0.00,,,0.00,meteobridge,2013-08-11 15:08:00,
2013-08-11 18:13:00,88.9,31.8,29.65,North,0,4.7,10.1,13,0.00,,,0.00,meteobridge,2013-08-11 15:13:00,
2013-08-11 18:18:00,88.7,31.6,29.65,NNW,338,5.4,8.1,13,0.00,,,0.00,meteobridge,2013-08-11 15:18:00,
2013-08-11 18:24:00,88.3,31.3,29.65,NNW,338,5.8,11.0,13,0.00,,,0.00,meteobridge,2013-08-11 15:24:00,
2013-08-11 18:29:00,87.8,30.9,29.65,NNE,22,5.8,7.6,13,0.00,,,0.00,meteobridge,2013-08-11 15:29:00,
2013-08-11 18:34:00,87.4,30.6,29.65,North,0,5.6,5.6,13,0.00,,,0.00,meteobridge,2013-08-11 15:34:00,
2013-08-11 18:39:00,86.5,29.8,29.65,NNE,22,3.8,8.7,13,0.00,,,0.00,meteobridge,2013-08-11 15:39:00,
2013-08-11 18:44:00,86.5,29.8,29.65,North,0,2.9,5.8,13,0.00,,,0.00,meteobridge,2013-08-11 15:44:00,
2013-08-11 18:49:00,86.4,29.8,29.62,NNE,22,4.9,7.8,13,0.00,,,0.00,meteobridge,2013-08-11 15:49:00,
2013-08-11 18:54:00,86.2,29.7,29.62,North,0,3.8,6.5,13,0.00,,,0.00,meteobridge,2013-08-11 15:54:00,
2013-08-11 18:59:00,85.8,29.3,29.62,NE,45,4.3,8.7,13,0.00,,,0.00,meteobridge,2013-08-11 15:59:00,
2013-08-11 19:04:00,85.5,29.1,29.65,NNW,338,6.3,7.6,13,0.00,,,0.00,meteobridge,2013-08-11 16:04:00,
2013-08-11 19:09:00,85.3,28.9,29.65,North,0,5.4,10.1,13,0.00,,,0.00,meteobridge,2013-08-11 16:09:00,
2013-08-11 19:14:00,85.1,28.8,29.65,NNW,338,6.5,10.1,13,0.00,,,0.00,meteobridge,2013-08-11 16:14:00,
2013-08-11 19:19:00,84.9,28.6,29.65,NNE,22,5.4,7.4,13,0.00,,,0.00,meteobridge,2013-08-11 16:19:00,
2013-08-11 19:24:00,84.7,28.6,29.65,NNE,22,4.0,5.8,13,0.00,,,0.00,meteobridge,2013-08-11 16:24:00,
2013-08-11 19:30:00,84.7,28.6,29.65,NE,45,4.9,8.1,13,0.00,,,0.00,meteobridge,2013-08-11 16:30:00,
2013-08-11 19:35:00,84.4,28.2,29.65,NE,45,4.7,7.6,13,0.00,,,0.00,meteobridge,2013-08-11 16:35:00,
2013-08-11 19:40:00,84.2,28.0,29.65,ENE,68,6.3,12.1,13,0.00,,,0.00,meteobridge,2013-08-11 16:40:00,
2013-08-11 19:46:00,84.2,28.0,29.65,NE,45,4.3,7.8,13,0.00,,,0.00,meteobridge,2013-08-11 16:46:00,
2013-08-11 19:51:00,84.2,28.0,29.65,NE,45,4.0,4.3,13,0.00,,,0.00,meteobridge,2013-08-11 16:51:00,
2013-08-11 19:56:00,84.0,29.8,29.65,North,0,5.8,5.8,14,0.00,,,0.00,meteobridge,2013-08-11 16:56:00,
2013-08-11 20:01:00,84.0,29.8,29.65,NNE,22,6.0,6.3,14,0.00,,,0.00,meteobridge,2013-08-11 17:01:00,
2013-08-11 20:06:00,84.0,29.8,29.65,NNW,338,4.3,6.3,14,0.00,,,0.00,meteobridge,2013-08-11 17:06:00,
2013-08-11 20:11:00,83.8,29.7,29.65,NNW,338,3.4,5.6,14,0.00,,,0.00,meteobridge,2013-08-11 17:11:00,
2013-08-11 20:16:00,83.7,29.5,29.65,NNW,338,4.9,11.0,14,0.00,,,0.00,meteobridge,2013-08-11 17:16:00,
2013-08-11 20:22:00,83.5,29.3,29.68,North,0,8.1,10.3,14,0.00,,,0.00,meteobridge,2013-08-11 17:22:00,
2013-08-11 20:27:00,83.3,29.1,29.68,NNW,338,2.9,4.3,14,0.00,,,0.00,meteobridge,2013-08-11 17:27:00,
2013-08-11 20:32:00,83.1,29.1,29.68,NNE,22,4.9,4.9,14,0.00,,,0.00,meteobridge,2013-08-11 17:32:00,
2013-08-11 20:37:00,83.1,29.1,29.68,NNE,22,4.3,4.3,14,0.00,,,0.00,meteobridge,2013-08-11 17:37:00,
2013-08-11 20:42:00,82.9,28.9,29.68,NNE,22,3.8,4.0,14,0.00,,,0.00,meteobridge,2013-08-11 17:42:00,
2013-08-11 20:47:00,82.8,28.8,29.68,North,0,3.4,4.9,14,0.00,,,0.00,meteobridge,2013-08-11 17:47:00,
2013-08-11 20:53:00,82.6,28.6,29.68,NNE,22,9.2,9.2,14,0.00,,,0.00,meteobridge,2013-08-11 17:53:00,
2013-08-11 20:58:00,82.6,28.6,29.68,NNE,22,3.8,4.0,14,0.00,,,0.00,meteobridge,2013-08-11 17:58:00,
2013-08-11 21:03:00,82.4,28.4,29.71,NNE,22,3.6,4.0,14,0.00,,,0.00,meteobridge,2013-08-11 18:03:00,
2013-08-11 21:08:00,82.4,28.4,29.71,NNW,338,8.5,8.5,14,0.00,,,0.00,meteobridge,2013-08-11 18:08:00,
2013-08-11 21:13:00,82.2,28.4,29.71,North,0,2.9,5.4,14,0.00,,,0.00,meteobridge,2013-08-11 18:13:00,
2013-08-11 21:18:00,82.2,28.4,29.71,North,0,4.9,5.8,14,0.00,,,0.00,meteobridge,2013-08-11 18:18:00,
2013-08-11 21:23:00,82.0,28.2,29.71,NE,45,3.6,5.4,14,0.00,,,0.00,meteobridge,2013-08-11 18:23:00,
2013-08-11 21:28:00,82.0,28.2,29.71,ENE,68,2.0,4.0,14,0.00,,,0.00,meteobridge,2013-08-11 18:28:00,
2013-08-11 21:33:00,81.9,28.0,29.71,NNW,338,2.7,5.8,14,0.00,,,0.00,meteobridge,2013-08-11 18:33:00,
2013-08-11 21:38:00,81.9,28.0,29.71,NE,45,2.2,3.8,14,0.00,,,0.00,meteobridge,2013-08-11 18:38:00,
2013-08-11 21:44:00,-999.0,-99.9,29.71,NNE,22,3.4,3.4,-999,0.00,,,0.00,meteobridge,2013-08-11 18:44:00,
2013-08-11 21:49:00,-999.0,-99.9,29.74,NNW,338,2.5,2.5,-999,0.00,,,0.00,meteobridge,2013-08-11 18:49:00,
2013-08-11 21:54:00,81.3,27.7,29.74,NNE,22,1.3,2.9,14,0.00,,,0.00,meteobridge,2013-08-11 18:54:00,
2013-08-11 21:59:00,81.3,27.7,29.74,NNW,338,2.0,4.3,14,0.00,,,0.00,meteobridge,2013-08-11 18:59:00,
2013-08-11 22:04:00,81.3,27.7,29.71,North,0,2.7,2.7,14,0.00,,,0.00,meteobridge,2013-08-11 19:04:00,
2013-08-11 22:10:00,81.1,27.5,29.71,NNE,22,3.4,4.9,14,0.00,,,0.00,meteobridge,2013-08-11 19:10:00,
2013-08-11 22:15:00,81.1,27.5,29.71,NNW,338,2.7,5.8,14,0.00,,,0.00,meteobridge,2013-08-11 19:15:00,
2013-08-11 22:20:00,81.1,27.5,29.71,North,0,4.3,4.9,14,0.00,,,0.00,meteobridge,2013-08-11 19:20:00,
2013-08-11 22:26:00,81.1,27.5,29.71,NNE,22,3.4,3.8,14,0.00,,,0.00,meteobridge,2013-08-11 19:26:00,
2013-08-11 22:31:00,81.1,27.5,29.71,North,0,4.3,4.3,14,0.00,,,0.00,meteobridge,2013-08-11 19:31:00,
2013-08-11 22:36:00,81.1,27.5,29.71,North,0,3.6,4.3,14,0.00,,,0.00,meteobridge,2013-08-11 19:36:00,
2013-08-11 22:41:00,81.1,27.5,29.71,North,0,2.5,4.0,14,0.00,,,0.00,meteobridge,2013-08-11 19:41:00,
2013-08-11 22:46:00,81.1,27.5,29.71,NE,45,3.6,6.0,14,0.00,,,0.00,meteobridge,2013-08-11 19:46:00,
2013-08-11 22:51:00,81.1,27.5,29.71,North,0,3.8,6.0,14,0.00,,,0.00,meteobridge,2013-08-11 19:51:00,
2013-08-11 22:56:00,-999.0,-99.9,29.71,North,0,6.7,6.9,-999,0.00,,,0.00,meteobridge,2013-08-11 19:56:00,
2013-08-11 23:01:00,81.3,27.7,29.71,NNW,338,4.0,7.4,14,0.00,,,0.00,meteobridge,2013-08-11 20:01:00,
2013-08-11 23:06:00,81.5,27.9,29.71,NNE,22,2.5,7.6,14,0.00,,,0.00,meteobridge,2013-08-11 20:06:00,
2013-08-11 23:12:00,81.5,27.9,29.71,NNE,22,4.9,8.7,14,0.00,,,0.00,meteobridge,2013-08-11 20:12:00,
2013-08-11 23:17:00,81.5,27.9,29.71,NW,315,4.0,7.8,14,0.00,,,0.00,meteobridge,2013-08-11 20:17:00,
2013-08-11 23:22:00,81.5,27.9,29.71,NNE,22,2.9,5.4,14,0.00,,,0.00,meteobridge,2013-08-11 20:22:00,
2013-08-11 23:27:00,81.5,27.9,29.71,NNW,338,6.0,6.0,14,0.00,,,0.00,meteobridge,2013-08-11 20:27:00,
2013-08-11 23:32:00,81.7,27.9,29.71,NNE,22,3.1,7.4,14,0.00,,,0.00,meteobridge,2013-08-11 20:32:00,
2013-08-11 23:37:00,81.7,27.9,29.71,NNW,338,2.7,6.5,14,0.00,,,0.00,meteobridge,2013-08-11 20:37:00,
2013-08-11 23:42:00,81.7,27.9,29.71,NNW,338,2.0,3.6,14,0.00,,,0.00,meteobridge,2013-08-11 20:42:00,
2013-08-11 23:47:00,81.7,27.9,29.71,NNW,338,2.5,3.8,14,0.00,,,0.00,meteobridge,2013-08-11 20:47:00,
2013-08-11 23:52:00,81.7,27.9,29.71,NNE,22,3.8,4.9,14,0.00,,,0.00,meteobridge,2013-08-11 20:52:00,
2013-08-11 23:57:00,81.5,27.9,29.71,NNE,22,2.5,3.6,14,0.00,,,0.00,meteobridge,2013-08-11 20:57:00,